Regional Weather Roundup
Issued by NWS

Home | Current Version | Previous Version | Graphics & Text | Print | Product List | Glossary On
Versions: 1 2 3 4 5 6 7 8 9 10 11 12 13 14 15 16 17 18 19 20 21 22 23 24 25 26 27 28 29 30 31 32 33 34 35 36 37 38 39 40 41 42 43 44 45 46 47 48 49 50
348
ASUS43 KMKX 280600
RWRWI

WISCONSIN REGIONAL WEATHER ROUNDUP
NATIONAL WEATHER SERVICE MILWAUKEE/SULLIVAN WI
100 AM CDT FRI APR 28 2017

NOTE: "FAIR" INDICATES FEW OR NO CLOUDS BELOW 12,000 FEET WITH NO
SIGNIFICANT WEATHER AND/OR OBSTRUCTIONS TO VISIBILITY.

WIZ001-002-006>008-014>016-023>028-280700-
NORTHWEST WISCONSIN

CITY           SKY/WX    TMP DP  RH WIND       PRES   REMARKS
SUPERIOR ARPT  CLOUDY    31  25  78 W10       29.72R WCI  22
ASHLAND        CLOUDY    29  24  82 SW10      29.70R WCI  20
6HR MIN TEMP:  29; 6HR MAX TEMP:  30;

HAYWARD        CLOUDY    29  25  85 SW7       29.72R WCI  22
6HR MIN TEMP:  29; 6HR MAX TEMP:  30;

SIREN          CLOUDY    30  29  95 CALM      29.75R
CUMBERLAND     CLOUDY    30  23  74 W8        29.74R WCI  23
RICE LAKE      CLOUDY    31  27  83 SW7       29.76R WCI  24
CHETEK         CLOUDY    31  25  77 W5        29.76R WCI  26
LADYSMITH      CLOUDY    31  27  84 SW9       29.75R WCI  23
EAU CLAIRE     CLOUDY    33  24  69 SW7       29.78R WCI  27
6HR MIN TEMP:  32; 6HR MAX TEMP:  34;

MENOMONIE      CLOUDY    33  26  73 SW7       29.79R WCI  27
NEW RICHMOND   CLOUDY    33  24  69 W13       29.78R WCI  24
OSCEOLA        CLOUDY    34  26  72 W10       29.80R WCI  26
$$

WIZ003>005-009-010-017-018-280700-
NORTH CENTRAL WISCONSIN

CITY           SKY/WX    TMP DP  RH WIND       PRES   REMARKS
MANITOWISH WTR NOT AVBL
ARBOR VITAE    CLOUDY    29  26  86 W9G18     29.67R WCI  21
WOODRUFF       CLOUDY    29  26  86 W9G18     29.67R WCI  21
RHINELANDER    CLOUDY    29  25  85 W10G21    29.69R WCI  20
6HR MIN TEMP:  29; 6HR MAX TEMP:  30; 6HR PCP: TRACE;

EAGLE RIVER    CLOUDY    28  22  77 W13       29.66R WCI  17
LAND O LAKES   CLOUDY    28  24  87 W9        29.67R WCI  19
PHILLIPS       CLOUDY    28  26  93 W8        29.70R WCI  19
TOMAHAWK       CLOUDY    28  23  81 W7        29.71R WCI  21
MEDFORD        CLOUDY    29  24  81 W10G20    29.72R WCI  20
MERRILL        CLOUDY    30  28  90 W7        29.73R WCI  23
$$

WIZ029-030-035-036-043>047-280700-
CENTRAL WISCONSIN

CITY           SKY/WX    TMP DP  RH WIND       PRES   REMARKS
WAUSAU         MIX PCPN  31  28  89 W17G24    29.74R WCI  19
6HR MIN TEMP:  31; 6HR MAX TEMP:  32; 6HR PCP: TRACE;

MOSINEE        CLOUDY    32  32 100 W12G17    29.75R WCI  23
MARSHFIELD     CLOUDY    31  27  85 W13G20    29.75R WCI  21
6HR MIN TEMP:  31; 6HR MAX TEMP:  33;

STEVENS POINT  CLOUDY    32  29  88 W9G21     29.76R WCI  24
WAUPACA        CLOUDY    37  32  81 W9        29.77R WCI  31
WAUTOMA        CLOUDY    35  32  88 W9        29.79R WCI  28
6HR MIN TEMP:  35; 6HR MAX TEMP:  38;

WISC RAPIDS    CLOUDY    34  32  92 W6        29.79R WCI  29
6HR MIN TEMP:  34; 6HR MAX TEMP:  37; 6HR PCP:  0.01;

CAMP DOUGLAS   NOT AVBL
$$

WIZ011>013-019>022-031-037>040-048>050-280700-
NORTHEAST WISCONSIN

CITY           SKY/WX    TMP DP  RH WIND       PRES   REMARKS
ANTIGO         CLOUDY    29  28  94 W16       29.71R WCI  18
SHAWANO        CLOUDY    37  32  83 W7        29.75R WCI  31
OCONTO         CLOUDY    36  32  87 W8        29.74R WCI  29
STURGEON BAY   CLOUDY    37  33  85 W9        29.75R WCI  30
6HR MIN TEMP:  37; 6HR MAX TEMP:  39; 6HR PCP: TRACE;

GREEN BAY      CLOUDY    39  34  82 W9        29.76R WCI  33
6HR MIN TEMP:  38; 6HR MAX TEMP:  42; 6HR PCP: TRACE;

MANITOWOC      NOT AVBL
APPLETON       CLOUDY    36  34  93 W10G16    29.75R WCI  28
CLINTONVILLE   CLOUDY    34  32  93 W10       29.76R WCI  26
OSHKOSH        CLOUDY    37  32  82 W10G23    29.78R WCI  30
6HR MIN TEMP:  36; 6HR MAX TEMP:  41; 6HR PCP:  0.01;

$$

WIZ032>034-041-042-053>061-280700-
SOUTHWEST WISCONSIN

CITY           SKY/WX    TMP DP  RH WIND       PRES   REMARKS
LA CROSSE      CLOUDY    38  28  67 W12       29.83R WCI  30
6HR MIN TEMP:  38; 6HR MAX TEMP:  40;

SPARTA         CLOUDY    35  29  78 W10       29.82R WCI  27
VIROQUA        CLOUDY    34  29  83 W13G18    29.81R WCI  25
BOSCOBEL       CLOUDY    39  29  67 W13G20    29.85R WCI  31
6HR MIN TEMP:  39; 6HR MAX TEMP:  41;

PRAIRIE DU CHI CLOUDY    38  28  66 W12G17    29.86R WCI  31
PLATTEVILLE    CLEAR     33  32  95 SW7       29.85R WCI  27
$$

WIZ056-057-062-063-064-067-068-280700-
SOUTH CENTRAL WISCONSIN

CITY           SKY/WX    TMP DP  RH WIND       PRES   REMARKS
REEDSBURG      NOT AVBL
BARABOO/DELLS  CLOUDY    37  29  74 W13G21    29.80R WCI  28
LONE ROCK      NOT AVBL
MINERAL POINT  PTCLDY    37  32  81 W15       29.82S WCI  28
MADISON        CLOUDY    39  29  67 VRB5      29.81S
6HR MIN TEMP:  38; 6HR MAX TEMP:  41;

MIDDLETON      CLOUDY    40  31  71 W12G17    29.82R WCI  32
WATERTOWN      CLOUDY    38  31  77 W13       29.82R WCI  30
MONROE         CLEAR     34  32  93 SW8       29.84R WCI  27
JANESVILLE     CLEAR     37  32  81 SW8       29.85R WCI  31
$$

WIZ051-052-058>065-066-070>072-280700-
SOUTHEAST WISCONSIN

CITY           SKY/WX    TMP DP  RH WIND       PRES   REMARKS
MILWAUKEE      CLOUDY    43  32  65 W16G25    29.83R
6HR MIN TEMP:  43; 6HR MAX TEMP:  45; 6HR PCP: TRACE;

WAUKESHA       CLOUDY    36  30  80 W14G25    29.83R WCI  27
MILWAUKEE/TIMM CLOUDY    39  30  70 W14       29.83R WCI  31
RACINE         CLOUDY    43  34  70 SW12      29.85R
6HR MIN TEMP:  43; 6HR MAX TEMP:  44;

KENOSHA        CLOUDY    43  35  73 W18       29.85R
6HR MIN TEMP:  43; 6HR MAX TEMP:  44;

FOND DU LAC    CLOUDY    39  30  70 SW14      29.79R WCI  31
6HR MIN TEMP:  39; 6HR MAX TEMP:  42; 6HR PCP: TRACE;

SHEBOYGAN      CLOUDY    40  35  83 W13       29.79R WCI  32
6HR MIN TEMP:  40; 6HR MAX TEMP:  42; 6HR PCP:  0.01;

WEST BEND      CLOUDY    37  32  81 W16       29.80R WCI  28
JUNEAU         CLOUDY    37  31  77 SW10G17   29.82R WCI  30
$$

LSZ147-162-280700-
LAKE SUPERIOR

STATION/POSITION TIME  TEMP    WIND        PRES    WAVE
                       AIR SEA DIR/SP/G            HT/PER
                 (UTC) (F)     (DEG/KT/KT) (MB)    (FT/S)
DEVILS ISLAND    0500   32     270/ 20/ 23 1004.9R
PORT WING        0540   32     260/ 14/ 18 1005.8R
SAXON HARBOR     0530   30     210/  7/ 12 1005.4R
$$

LMZ867-665-643>646-280700-
LAKE MICHIGAN

STATION/POSITION TIME  TEMP    WIND        PRES    WAVE
                       AIR SEA DIR/SP/G            HT/PER
                 (UTC) (F)     (DEG/KT/KT) (MB)    (FT/S)
CHAMBERS ISLAND  0540   36     240/  7/ 14 1006.8R
N MID LAKE BUOY  0450   38 37  240/ 16/ 17 1006.5R   3/ 6
NORTHPORT PIER   0540   37     250/  8/ 17 1006.8R
KEWAUNEE LAKESHO 0530   40     280/  9/ 16 1007.2R
SHEBOYGAN LAKESH 0500   42     250/ 14/ 18 1008.5R
PORT WASHINGTON  0530   42     250/ 12/ 16 1010.2R
MILWAUKEE LAKESH 0530   43     240/ 18/ 22   N/A
S MID LAKE BUOY  0450   43 41  260/ 16/ 17 1010.6R   3/ 5
KENOSHA   LAKESH 0500   44     240/ 12/ 17 1010.5
$$

TC  - TEMPERATURE IN CELSIUS
VSB - VISIBILITY IN STATUTE MILES
WCI - WIND CHILL INDEX
HX  - HEAT INDEX





USA.gov is the U.S. government's official web portal to all federal, state and local government web resources and services.